Les Diablerets Engelberg, Switzerland 16 day weather forecast

Slopes altitude range 1050 m - 3030m

Number of lifts: 8 Pistes: 25km

In some cases the lift and piste totals shown are for the ski domain (e.g. Three Valleys) rather than individual resort (e.g. Courchevel)

Overview

The 16 day weather forecast is fully updated 4 times every day.

    • Wed 26 JUN 2019
    • Wed 26
    • 22C 31C
    • Thu 27 JUN 2019
    • Thu 27
    • 23C 32C
    • Fri 28 JUN 2019
    • Fri 28
    • 22C 29C
    • Sat 29 JUN 2019
    • Sat 29
    • 20C 28C
    • Sun 30 JUN 2019
    • Sun 30
    • 21C 29C
    • Mon 01 JUL 2019
    • Mon 01
    • 21C 29C
    • Tue 02 JUL 2019
    • Tue 02
    • 17C 23C
    • Wed 03 JUL 2019
    • Wed 03
    • 16C 23C
    • Thu 04 JUL 2019
    • Thu 04
    • 18C 26C
    • Fri 05 JUL 2019
    • Fri 05
    • 19C 28C
    • Sat 06 JUL 2019
    • Sat 06
    • 15C 22C
    • Sun 07 JUL 2019
    • Sun 07
    • 12C 22C
    • Mon 08 JUL 2019
    • Mon 08
    • 17C 26C
    • Tue 09 JUL 2019
    • Tue 09
    • 18C 27C
    • Wed 10 JUL 2019
    • Wed 10
    • 19C 27C
    • Thu 11 JUL 2019
    • Thu 11
    • 19C 27C

Date:

Time Type 0°C level Temp Chill Snow Cloud Speed Gust Dir Press
3:00 4632m 18°C 18_5 0cm 19% 5mph 5mph 1024mB
6:00 4615m 18°C 18_4 0cm 59% 4mph 4mph 1025mB
9:00 4622m 22°C 22_3 0cm 26% 3mph 2mph 1024mB
12:00 4646m 31°C 31_5 0cm 13% 5mph 4mph 1024mB
15:00 4640m 32°C 32_4 0cm 0% 4mph 4mph 1023mB
18:00 4660m 32°C 32_1 0cm 0% 1mph 1mph 1024mB
21:00 4646m 21°C 21_6 0cm 0% 6mph 6mph 1025mB
0:00 4618m 19°C 19_6 0cm 12% 6mph 6mph 1025mB
3:00 4600m 19°C 19_5 0cm 0% 5mph 5mph 1024mB
6:00 4583m 18°C 18_4 0cm 0% 4mph 4mph 1024mB
9:00 4565m 23°C 23_3 0cm 0% 3mph 4mph 1023mB
12:00 4580m 32°C 32_5 0cm 0% 5mph 8mph 1022mB
15:00 4606m 33°C 33_6 0cm 0% 6mph 10mph 1021mB
18:00 4604m 33°C 33_4 0cm 0% 4mph 5mph 1020mB
21:00 4615m 20°C 20_5 0cm 0% 5mph 5mph 1023mB
0:00 4580m 18°C 18_4 0cm 0% 4mph 5mph 1022mB
3:00 4564m 18°C 18_4 0cm 0% 4mph 5mph 1021mB
6:00 4556m 17°C 17_2 0cm 0% 2mph 3mph 1021mB
9:00 4561m 22°C 22_4 0cm 0% 4mph 3mph 1020mB
12:00 4667m 29°C 29_6 0cm 0% 6mph 5mph 1018mB
15:00 4718m 29°C 29_5 0cm 0% 5mph 5mph 1017mB
18:00 4790m 29°C 29_4 0cm 0% 4mph 7mph 1018mB
21:00 4864m 17°C 17_4 0cm 0% 4mph 4mph 1019mB
0:00 4883m 16°C 16_4 0cm 0% 4mph 4mph 1019mB
3:00 4830m 15°C 15_3 0cm 0% 3mph 4mph 1019mB
6:00 4861m 15°C 15_1 0cm 0% 1mph 1mph 1018mB
9:00 4902m 20°C 20_4 0cm 0% 4mph 3mph 1018mB
12:00 4864m 28°C 28_5 0cm 0% 5mph 4mph 1017mB
15:00 4881m 28°C 28_4 0cm 0% 4mph 5mph 1016mB
18:00 4853m 28°C 28_1 0cm 0% 1mph 2mph 1017mB
21:00 4850m 18°C 18_5 0cm 0% 5mph 5mph 1019mB
0:00 4786m 17°C 17_5 0cm 0% 5mph 5mph 1019mB
3:00 4710m 17°C 17_5 0cm 0% 5mph 5mph 1019mB
6:00 4639m 16°C 16_4 0cm 0% 4mph 4mph 1020mB
9:00 4638m 21°C 21_3 0cm 0% 3mph 3mph 1020mB
12:00 4620m 29°C 29_4 0cm 0% 4mph 3mph 1019mB
15:00 4560m 30°C 30_3 0cm 0% 3mph 3mph 1018mB
18:00 4542m 30°C 30_1 0cm 0% 1mph 1mph 1018mB
21:00 4530m 19°C 19_5 0cm 0% 5mph 6mph 1020mB
0:00 4483m 18°C 18_6 0cm 0% 6mph 6mph 1019mB
3:00 4468m 17°C 17_5 0cm 0% 5mph 5mph 1019mB
6:00 4389m 17°C 17_3 0cm 0% 3mph 4mph 1020mB
9:00 4412m 21°C 21_3 0cm 100% 3mph 4mph 1019mB
12:00 4368m 29°C 29_6 0cm 66% 6mph 7mph 1018mB
15:00 4362m 29°C 29_6 0cm 26% 6mph 7mph 1017mB
18:00 4301m 29°C 29_5 0cm 48% 5mph 6mph 1018mB
21:00 4303m 16°C 16_6 0cm 100% 6mph 6mph 1020mB
0:00 4221m 15°C 15_5 0cm 100% 5mph 6mph 1020mB
3:00 4237m 14°C 14_3 0cm 67% 3mph 4mph 1018mB
6:00 4206m 14°C 14_1 0cm 82% 1mph 1mph 1019mB
9:00 4133m 17°C 17_5 0cm 88% 5mph 3mph 1018mB
12:00 4193m 23°C 23_6 0cm 88% 6mph 6mph 1017mB
15:00 4131m 23°C 23_5 0cm 88% 5mph 7mph 1017mB
18:00 4116m 23°C 23_4 0cm 94% 4mph 8mph 1017mB
21:00 4126m 15°C 15_1 0cm 100% 1mph 3mph 1018mB
0:00 4080m 14°C 14_2 0cm 100% 2mph 3mph 1018mB
3:00 3937m 13°C 13_1 0cm 99% 1mph 2mph 1018mB
6:00 3934m 13°C 13_2 0cm 97% 2mph 2mph 1018mB
9:00 4001m 16°C 16_4 0cm 60% 4mph 4mph 1018mB
12:00 4000m 23°C 23_5 0cm 51% 5mph 4mph 1017mB
15:00 4068m 25°C 25_6 0cm 6% 6mph 8mph 1016mB
18:00 4080m 25°C 25_6 0cm 44% 6mph 15mph 1016mB
21:00 4023m 18°C 18_6 0cm 100% 6mph 10mph 1018mB
0:00 3957m 16°C 16_2 0cm 84% 2mph 3mph 1017mB
3:00 3934m 15°C 15_1 0cm 85% 1mph 2mph 1017mB
6:00 4005m 15°C 15_1 0cm 60% 1mph 2mph 1017mB
9:00 3990m 18°C 18_3 0cm 65% 3mph 5mph 1016mB
12:00 4047m 26°C 26_5 0cm 82% 5mph 8mph 1016mB
15:00 4080m 27°C 27_6 0cm 89% 6mph 10mph 1015mB
18:00 4089m 28°C 28_5 0cm 51% 5mph 7mph 1015mB
21:00 4035m 20°C 20_6 0cm 30% 6mph 9mph 1016mB
0:00 4055m 18°C 18_2 0cm 65% 2mph 2mph 1016mB
3:00 4040m 18°C 18_7 0cm 94% 7mph 18mph 1016mB
6:00 4033m 17°C 17_8 0cm 95% 8mph 21mph 1017mB
9:00 4087m 19°C 19_10 0cm 55% 10mph 18mph 1017mB
12:00 4015m 28°C 28_13 0cm 28% 13mph 19mph 1017mB
15:00 4026m 29°C 29_11 0cm 46% 11mph 18mph 1016mB
18:00 4024m 29°C 29_7 0cm 61% 7mph 13mph 1018mB
21:00 3960m 17°C 17_6 0cm 68% 6mph 7mph 1021mB
0:00 3858m 16°C 16_4 0cm 52% 4mph 4mph 1022mB
Afternoon 0mm 0 3563m 22°C 22_3 0cm 11% 3mph 5mph 1023mB
Morning 0mm 0 4196m 12°C 12_12 0cm 0% 12mph 26mph 1024mB
Afternoon 0mm 0 4594m 22°C 22_6 0cm 0% 6mph 7mph 1020mB
Morning 0mm 0 4439m 14°C 14_2 0cm 7% 2mph 2mph 1019mB
Afternoon 0mm 0 4399m 26°C 26_2 0cm 54% 2mph 2mph 1016mB
Morning 0.520833mm 1.5625 4351m 18°C 18_2 0cm 31% 2mph 3mph 1017mB
Afternoon 0.520833mm 1.5 4251m 27°C 27_3 0cm 38% 3mph 5mph 1016mB
Morning 0.625mm 1.875 3961m 18°C 18_3 0cm 82% 3mph 4mph 1018mB
Afternoon 0.416667mm 1.1875 4121m 27°C 27_3 0cm 25% 3mph 3mph 1016mB
Morning 0.104167mm 0.3125 4114m 18°C 18_2 0cm 50% 2mph 2mph 1015mB
Afternoon 0.229167mm 0.6875 4115m 27°C 27_2 0cm 28% 2mph 3mph 1011mB
Morning 0.208333mm 0.25 3905m 15°C 15_3 0cm 96% 3mph 4mph 1011mB

16 day outlook at a glance

Forecast issued: 6/26/2019 8:08:33 AM

Chat

Your comments and questions. In a resort? Let us know what it's like!


Characters left 250

For terms and conditions see Readers Comments on the Cookie and privacy policy page.